User: anonymous   Login
Location: Kapuskasing
(49.3803°N, 82.4001°W)
Time: 17:09:32
(UTC-05:00)
Language:

ISS - Orbit

View from above orbital plane
View from above orbital plane
View from above satellite
View from above satellite

Ground track
Ground track

The orbit data is extracted from the following two-line orbital elements,

1 25544U 98067A   24051.57306753  .00017164  00000-0  30622-3 0  9993
2 25544  51.6401 178.2264 0001870 289.0710 164.3741 15.50171695440310
Epoch (UTC): 20 February 2024 13:45:13
Eccentricity: 0.0001870
inclination: 51.6401°
perigee height: 415 km
apogee height: 417 km
right ascension of ascending node: 178.2264°
argument of perigee: 289.0710°
revolutions per day: 15.50171695
mean anomaly at epoch: 164.3741°
orbit number at epoch: 44031

The dashed part of the orbit path shows where the satellite is in the earth's shadow,  

DLR